Wetbulb
68.17 67.51 65.98 63.53 57.66 59.49 55.16 55.89 61.08 59.43 61.11 64.37 64.45 62.90 61.95 62.64 60.83 59.66 73.36 75.11 75.27 74.91 76.72 76.88 77.41 77.04 76.23 76.11 75.84 75.98 76.50 76.66 76.58 76.71 76.68 76.61 76.51 75.96 76.11 76.36 76.41 76.12 75.14 75.13 74.81 74.32 73.95 73.73 73.06
66.08 65.46 62.57 58.23 54.64 52.35 52.31 57.85 56.93 60.70 63.19 65.15 64.49 63.97 63.01 60.87 65.81 70.51 72.36 74.92 75.01 75.86 77.05 77.02 77.46 77.07 76.11 75.66 75.73 75.95 76.11 76.11 76.13 76.23 76.06 75.86 76.03 75.99 75.61 75.81 76.08 75.63 75.42 75.24 75.09 74.60 74.17 73.67 72.98
63.33 60.68 57.53 56.33 53.69 52.43 51.96 55.54 57.20 62.25 64.28 64.36 62.85 65.20 64.43 64.04 69.99 71.85 73.85 75.46 75.15 75.66 76.85 77.32 77.51 77.16 76.31 75.76 75.36 75.90 75.95 76.03 76.01 76.09 75.94 75.68 75.68 75.96 76.16 76.44 76.61 76.15 75.90 75.72 75.09 74.50 74.17 73.79 73.08
60.21 56.86 56.87 54.81 51.60 53.93 54.94 59.09 58.85 60.66 63.84 63.99 64.34 62.89 66.17 70.85 71.08 72.99 74.93 75.60 74.51 75.40 76.19 77.35 77.18 77.06 76.71 75.89 75.33 75.41 75.83 75.95 76.16 75.91 75.66 75.56 75.38 75.88 76.17 76.08 76.24 75.74 75.34 75.07 74.47 73.83 73.12 72.44 71.70
57.97 57.44 54.90 52.75 52.23 54.80 59.74 62.31 61.18 61.31 62.71 62.48 63.80 62.44 65.00 71.34 74.01 74.34 74.25 73.87 73.57 74.53 76.14 77.17 77.20 76.95 76.76 76.09 75.36 75.21 75.71 75.80 76.05 75.86 75.56 75.56 75.78 76.00 76.17 76.06 75.79 75.83 75.57 74.84 73.83 72.80 72.06 72.14 72.01
56.44 56.67 53.16 51.08 52.55 55.82 57.29 58.47 63.60 63.41 63.32 63.73 62.46 62.78 66.28 72.38 72.62 73.29 73.54 72.72 73.52 73.33 75.68 76.84 76.64 76.83 76.55 76.53 75.91 75.67 75.55 75.62 75.90 75.97 76.00 75.73 75.77 75.85 76.03 75.93 75.51 75.11 74.88 74.17 73.75 73.18 72.94 72.92 72.84
55.23 55.77 52.20 52.50 53.34 54.59 56.98 59.80 56.49 62.16 63.14 62.97 63.30 61.29 64.77 70.23 72.04 72.41 72.14 72.91 73.78 74.00 74.50 75.86 76.52 76.53 76.35 76.30 76.24 75.86 75.54 75.56 75.51 75.41 75.66 75.76 75.50 75.67 75.67 75.65 75.28 74.98 74.61 74.36 74.01 74.04 73.98 73.64 73.39
56.18 56.52 52.02 53.40 53.22 52.98 57.81 58.29 57.89 61.22 63.00 65.27 65.24 62.97 64.84 70.07 71.63 71.66 71.44 71.76 72.96 73.52 73.84 74.69 75.94 76.08 76.39 76.38 76.09 75.84 75.52 75.49 75.40 75.26 75.21 75.44 75.10 75.17 75.29 75.26 74.98 74.95 74.78 74.56 74.58 74.36 73.84 73.71 73.71
56.02 53.70 51.55 52.22 53.00 54.51 58.18 57.59 59.37 63.41 64.73 62.95 64.50 67.01 69.55 71.26 71.32 69.96 69.38 70.28 71.59 72.29 73.22 74.27 74.64 75.66 75.93 75.83 75.83 75.53 75.06 74.98 75.11 74.91 74.92 74.71 74.55 74.59 74.12 74.71 73.71 74.18 74.68 74.80 74.60 74.13 73.93 73.74 73.96
54.78 53.08 52.60 55.20 56.11 55.68 57.70 58.06 58.93 61.20 62.03 62.75 63.75 66.79 67.72 71.38 70.58 68.33 68.17 68.03 68.79 69.94 72.38 74.23 74.86 74.52 75.00 74.66 75.43 75.38 74.74 74.94 75.13 75.16 75.59 75.10 75.19 74.94 74.08 73.81 73.95 73.93 74.00 74.40 74.63 74.38 74.13 74.28 75.95
53.08 52.19 54.22 55.82 57.61 57.22 56.57 57.54 57.90 57.41 57.33 61.54 63.53 66.25 66.66 70.08 71.51 70.17 69.62 68.82 68.12 69.66 71.33 73.33 74.31 74.68 74.80 74.35 74.91 74.77 74.65 74.89 74.91 74.82 75.50 75.76 75.00 74.66 73.99 73.61 72.96 73.30 73.30 73.35 73.74 74.28 74.89 74.30 75.81
51.62 53.49 55.12 56.12 58.11 57.15 56.14 58.78 57.75 58.74 58.13 60.60 60.29 56.63 61.25 70.48 71.26 71.88 71.00 69.87 69.07 69.58 70.71 72.10 73.29 74.18 74.43 74.58 74.43 74.44 74.08 74.06 73.71 74.87 75.61 74.70 73.78 73.36 72.76 72.19 72.16 72.34 73.01 73.11 74.27 74.39 74.98 74.99 71.56
51.74 52.49 54.14 55.73 55.31 55.91 57.96 57.55 57.07 57.84 60.46 62.05 61.86 59.87 57.31 68.42 71.60 72.50 73.05 73.04 71.10 69.70 70.47 71.82 72.27 72.86 73.41 73.34 74.31 73.96 73.74 73.67 73.89 73.98 74.35 74.04 73.28 72.45 72.00 72.54 73.31 73.58 73.94 73.94 73.45 74.38 73.15 66.62 66.21
52.16 52.29 53.13 53.65 54.00 53.76 54.81 56.79 57.38 58.67 60.63 60.13 61.00 59.03 59.21 57.89 62.01 66.14 66.61 69.54 72.16 70.93 70.18 71.48 72.18 72.87 72.93 72.42 72.86 73.07 73.91 73.95 73.55 73.58 73.78 73.58 73.25 72.37 71.47 72.38 73.24 73.62 74.00 74.17 72.70 71.20 65.89 63.78 64.19
50.31 48.77 49.93 50.85 51.53 52.11 54.52 52.23 54.76 58.99 59.49 59.15 59.33 60.13 60.59 61.53 63.48 63.11 64.53 67.95 68.86 72.13 72.02 71.78 72.23 72.81 71.95 71.71 72.44 72.59 73.10 72.83 73.34 73.25 73.00 72.63 73.65 73.85 73.42 73.75 73.37 72.65 73.19 70.47 68.18 65.29 65.27 63.70 62.72
48.50 48.91 47.03 50.41 51.18 51.46 53.85 48.97 53.21 56.99 56.58 58.04 57.77 59.42 62.33 63.95 65.05 66.30 67.91 69.68 71.51 71.13 71.95 71.69 71.36 71.74 72.37 72.30 72.83 73.19 73.73 73.55 73.29 73.66 73.67 73.34 73.88 73.87 73.96 72.77 69.45 69.78 70.76 68.35 67.21 66.20 63.90 63.63 62.43
47.66 45.91 45.84 47.90 51.45 50.40 51.47 48.70 52.14 54.85 54.77 57.21 58.01 60.62 62.38 62.42 62.63 64.57 66.80 67.18 69.42 72.22 72.66 72.49 73.36 72.92 73.21 73.19 73.62 74.56 74.76 74.78 74.86 74.32 73.99 73.75 73.54 73.41 72.52 69.85 67.37 67.06 66.80 66.92 65.55 64.94 65.07 62.51 60.81
44.58 44.76 45.32 45.55 49.48 49.65 48.43 49.20 53.17 54.46 52.52 55.23 60.51 61.70 61.31 60.63 59.81 61.66 63.36 63.51 64.43 65.54 67.14 67.83 68.41 69.74 73.50 73.60 73.38 73.04 72.78 71.71 72.26 72.87 72.99 72.27 72.79 69.84 68.96 67.43 66.65 65.47 64.23 63.15 62.41 62.67 62.49 61.91 60.67
45.60 44.36 43.65 46.67 48.40 47.97 47.66 49.26 50.87 55.60 57.92 58.91 60.17 58.66 58.22 58.29 59.21 59.41 59.25 60.31 60.95 60.99 61.50 63.01 63.73 66.14 67.87 69.70 70.74 71.80 70.85 69.94 70.36 70.32 70.20 70.87 70.88 68.05 67.98 66.61 65.91 64.64 63.17 62.94 63.28 62.07 61.81 60.94 61.36
44.77 43.77 44.15 46.36 48.27 49.32 49.76 48.57 52.38 53.97 56.33 58.77 58.02 57.49 57.35 56.87 54.12 54.21 55.03 55.07 56.12 56.47 56.76 58.12 60.20 62.59 63.74 66.24 67.51 68.78 69.04 68.06 68.23 69.50 69.47 68.91 68.38 67.55 66.43 65.80 64.38 63.86 62.41 62.81 62.56 62.90 60.02 60.59 61.29
44.67 44.39 44.25 44.70 47.47 47.64 48.17 47.40 49.54 53.12 54.97 55.07 54.83 54.14 52.85 51.80 51.10 51.67 52.18 51.79 52.96 52.81 54.32 55.44 56.43 57.90 59.32 61.94 64.04 66.65 67.83 67.73 66.61 66.30 66.82 67.25 66.53 66.22 66.26 64.73 63.98 63.94 63.70 61.91 62.72 62.21 61.40 58.20 59.44
44.46 46.58 46.35 44.91 44.93 43.23 45.99 40.65 46.06 48.41 46.09 46.69 48.09 49.41 49.80 50.02 50.21 50.23 50.53 50.31 50.40 51.03 52.55 53.21 54.26 54.93 56.06 58.05 58.67 60.33 61.35 62.28 64.60 64.60 65.42 66.32 66.21 65.82 65.56 64.88 64.41 64.59 63.62 63.51 62.55 62.44 61.97 61.02 59.36
45.51 47.14 45.59 44.81 44.67 43.67 44.18 43.60 44.00 47.98 42.13 41.30 43.92 46.93 48.20 48.70 48.81 48.03 48.68 49.65 50.75 51.22 51.44 52.22 52.74 53.00 53.59 54.99 55.98 55.49 56.11 58.10 60.52 61.58 62.83 64.65 65.37 65.33 64.73 64.70 64.47 64.28 63.39 63.69 63.52 62.65 61.78 60.82 59.69
47.36 45.69 45.52 44.87 44.28 39.86 41.99 44.07 42.32 43.18 42.12 41.31 43.06 44.48 46.65 47.95 48.40 48.51 49.27 49.98 49.85 50.56 50.36 50.84 50.88 51.49 52.28 52.43 52.83 52.71 53.04 53.80 54.73 56.71 58.14 59.83 61.61 63.09 63.88 64.30 64.26 64.02 63.64 62.93 62.71 62.61 61.83 61.03 60.32
46.90 45.18 40.07 37.92 38.41 37.23 42.76 42.96 40.03 40.54 42.03 42.55 41.78 42.56 44.51 45.74 46.14 47.07 47.24 47.58 48.27 48.41 49.02 49.24 49.18 49.49 50.59 50.95 51.13 51.03 51.17 51.89 52.10 52.88 53.32 54.42 57.57 59.57 61.79 62.90 62.83 62.55 63.09 62.90 62.61 61.85 61.46 61.01 59.83
44.43 44.84 40.40 33.15 35.60 39.16 42.98 38.51 40.10 42.22 43.44 43.57 43.70 44.46 44.61 44.91 45.32 45.36 45.86 46.46 46.84 47.12 47.49 47.80 48.02 48.18 49.21 49.32 49.50 49.82 50.35 50.42 50.34 50.90 50.25 50.90 52.52 54.82 57.82 60.14 61.79 61.98 62.18 61.91 61.96 60.79 60.53 60.62 59.55
43.67 43.55 44.04 39.28 38.21 39.28 39.14 38.58 42.10 43.89 42.99 43.77 43.87 44.28 44.39 45.18 45.43 45.70 46.10 45.62 45.72 46.43 46.89 47.10 47.28 47.73 48.14 48.30 48.49 48.64 49.00 49.11 48.41 49.17 49.67 49.84 51.01 51.96 53.92 55.26 57.39 60.07 60.76 59.89 59.00 57.53 57.63 57.63 58.22
45.71 45.16 41.10 41.92 33.71 32.78 36.61 37.61 41.66 40.62 41.64 42.32 42.93 43.75 44.81 45.85 45.49 45.37 44.96 45.78 46.48 46.79 47.04 47.54 47.44 47.01 47.27 47.44 47.51 47.25 47.10 47.39 47.64 47.71 48.04 48.85 50.10 51.48 52.28 52.82 54.02 55.64 58.02 58.13 57.29 56.83 56.67 56.31 56.28
45.19 44.21 41.40 42.41 40.35 35.98 35.13 38.92 43.28 44.34 43.92 42.34 42.85 44.07 44.57 45.20 45.05 44.60 45.03 45.66 46.23 46.77 46.93 46.64 46.36 45.55 45.25 45.82 45.95 45.64 46.07 46.53 46.53 45.66 46.62 47.51 49.30 50.08 50.00 51.07 51.86 52.84 55.02 56.81 57.29 57.08 55.24 53.94 54.09
44.43 41.95 41.50 40.94 37.28 39.23 39.01 39.60 44.01 44.33 43.93 43.74 43.50 44.09 44.59 45.08 44.58 44.58 44.75 45.16 45.29 45.59 45.21 44.86 44.33 44.47 45.13 45.53 45.50 45.48 46.04 46.20 45.53 44.62 45.22 47.65 48.15 49.01 49.87 50.62 50.83 51.46 52.61 55.51 55.98 55.57 54.59 52.22 53.15
MSLP
1011.84 1011.98 1011.90 1011.30 1010.38 1008.46 1007.91 1008.33 1008.92 1008.86 1008.81 1008.91 1008.88 1008.59 1008.70 1009.07 1008.83 1009.53 1010.03 1010.23 1010.65 1011.33 1011.97 1012.50 1012.91 1013.15 1013.35 1013.40 1013.69 1013.81 1013.92 1014.13 1014.25 1014.46 1014.71 1014.97 1015.17 1015.37 1015.59 1015.86 1016.02 1016.13 1016.25 1016.33 1016.44 1016.49 1016.52 1016.57 1016.60
1011.64 1011.96 1011.38 1010.11 1008.95 1007.67 1007.45 1007.93 1008.30 1008.96 1009.16 1009.11 1008.96 1008.81 1008.41 1008.80 1009.05 1009.49 1009.92 1010.69 1010.85 1011.13 1011.98 1012.40 1012.86 1013.14 1013.37 1013.46 1013.64 1013.93 1014.07 1014.25 1014.50 1014.69 1014.93 1015.07 1015.29 1015.49 1015.73 1015.98 1016.15 1016.26 1016.32 1016.40 1016.48 1016.59 1016.63 1016.69 1016.73
1011.56 1011.25 1010.21 1009.36 1008.63 1007.70 1007.55 1007.28 1007.86 1008.84 1009.02 1009.09 1009.02 1008.86 1008.60 1008.70 1009.06 1009.38 1010.08 1010.67 1011.24 1011.81 1011.89 1012.54 1013.01 1013.28 1013.58 1013.72 1013.83 1014.04 1014.26 1014.38 1014.58 1014.86 1015.06 1015.29 1015.42 1015.52 1015.74 1015.95 1016.15 1016.27 1016.35 1016.45 1016.58 1016.70 1016.78 1016.82 1016.89
1010.87 1010.61 1010.26 1009.15 1008.33 1008.07 1007.97 1007.31 1007.63 1008.23 1008.80 1009.11 1009.19 1008.77 1009.24 1008.94 1008.92 1009.40 1010.32 1010.65 1011.51 1012.16 1012.29 1012.79 1013.25 1013.59 1013.92 1014.06 1014.16 1014.27 1014.46 1014.67 1014.75 1014.95 1015.26 1015.48 1015.71 1015.88 1015.89 1016.05 1016.24 1016.35 1016.50 1016.58 1016.71 1016.87 1016.97 1016.97 1016.95
1010.47 1009.84 1009.09 1008.85 1008.50 1008.20 1007.92 1007.67 1007.42 1007.87 1008.35 1008.91 1009.20 1008.85 1008.98 1009.28 1009.47 1010.06 1010.89 1011.18 1011.45 1012.15 1012.54 1012.93 1013.56 1013.91 1014.17 1014.31 1014.37 1014.56 1014.67 1014.86 1015.13 1015.23 1015.46 1015.64 1015.84 1016.00 1016.14 1016.23 1016.32 1016.43 1016.53 1016.70 1016.84 1016.92 1016.98 1016.96 1016.93
1009.61 1009.73 1008.81 1008.45 1008.39 1008.06 1007.69 1007.54 1007.45 1007.68 1008.17 1008.67 1008.84 1008.84 1009.19 1009.87 1010.03 1010.35 1010.95 1011.51 1012.17 1012.38 1012.49 1013.08 1013.31 1014.00 1014.40 1014.53 1014.64 1014.79 1014.92 1015.10 1015.35 1015.51 1015.67 1015.94 1016.11 1016.29 1016.36 1016.35 1016.48 1016.55 1016.62 1016.74 1016.89 1016.93 1016.93 1016.91 1016.87
1009.18 1009.19 1008.76 1008.64 1008.32 1007.83 1007.77 1007.61 1007.29 1007.44 1007.97 1008.38 1008.81 1008.53 1009.34 1009.83 1010.28 1010.59 1011.15 1011.70 1012.11 1012.54 1012.41 1012.88 1012.92 1013.80 1014.39 1014.56 1014.88 1015.12 1015.27 1015.33 1015.61 1015.73 1015.99 1016.27 1016.47 1016.55 1016.59 1016.56 1016.60 1016.67 1016.66 1016.69 1016.79 1016.86 1016.84 1016.72 1016.62
1009.48 1009.28 1008.94 1008.78 1008.23 1007.93 1007.98 1007.54 1007.88 1007.44 1007.72 1008.68 1008.92 1008.53 1009.11 1009.94 1010.25 1010.63 1011.15 1011.76 1012.21 1012.66 1012.47 1012.95 1013.31 1013.74 1014.03 1014.23 1014.93 1015.30 1015.42 1015.49 1015.73 1015.88 1015.99 1016.19 1016.47 1016.61 1016.62 1016.74 1016.73 1016.74 1016.75 1016.81 1016.77 1016.80 1016.80 1016.74 1016.60
1009.76 1009.21 1008.74 1008.59 1008.47 1008.07 1008.18 1007.57 1008.03 1008.35 1007.93 1008.17 1008.50 1008.72 1009.40 1010.03 1010.27 1010.50 1011.32 1011.77 1012.45 1012.59 1012.80 1013.24 1013.43 1013.56 1013.71 1013.92 1014.48 1015.13 1015.35 1015.63 1015.74 1015.89 1016.09 1016.28 1016.05 1016.23 1016.41 1016.41 1016.70 1016.73 1016.70 1016.75 1016.75 1016.72 1016.69 1016.64 1016.37
1009.32 1009.14 1008.85 1008.93 1008.82 1008.43 1008.18 1007.95 1007.82 1008.06 1008.09 1007.79 1007.84 1007.95 1008.98 1009.81 1010.17 1010.23 1010.89 1011.52 1011.71 1012.40 1013.01 1013.36 1013.64 1013.80 1013.98 1014.15 1014.49 1014.90 1015.07 1015.25 1015.39 1015.43 1015.69 1015.80 1015.90 1016.08 1016.32 1016.39 1016.64 1016.67 1016.62 1016.62 1016.56 1016.45 1016.36 1016.25 1015.57
1009.63 1008.99 1009.12 1009.10 1008.94 1008.64 1008.14 1008.32 1008.20 1007.99 1007.93 1008.11 1007.75 1007.48 1008.30 1009.44 1009.80 1010.18 1010.19 1010.89 1011.29 1012.22 1012.96 1013.42 1013.74 1013.92 1014.14 1014.12 1014.53 1014.81 1014.84 1015.06 1015.34 1015.55 1015.56 1015.65 1015.72 1015.88 1016.03 1015.98 1016.09 1016.00 1016.14 1015.89 1015.90 1015.87 1015.67 1015.66 1015.54
1009.56 1009.39 1009.12 1008.85 1008.91 1008.67 1008.35 1008.35 1008.08 1008.33 1008.37 1008.43 1008.33 1008.32 1008.67 1009.28 1009.51 1009.59 1010.18 1011.68 1011.74 1012.20 1012.69 1013.41 1013.38 1013.72 1014.09 1014.32 1014.48 1014.58 1014.86 1015.05 1015.41 1015.45 1015.47 1015.44 1015.44 1015.71 1015.92 1015.78 1015.88 1015.87 1015.64 1015.67 1015.77 1015.53 1015.72 1015.58 1015.75
1009.70 1009.40 1009.31 1008.86 1008.93 1008.79 1008.79 1008.23 1008.37 1008.29 1008.11 1008.44 1008.47 1009.00 1009.04 1009.49 1009.72 1009.98 1010.20 1010.78 1011.41 1011.92 1012.62 1012.48 1013.03 1013.42 1013.97 1014.39 1014.69 1014.70 1014.78 1014.80 1015.23 1015.50 1015.65 1015.61 1015.40 1015.66 1015.77 1015.74 1015.71 1015.70 1015.53 1015.48 1015.50 1015.83 1015.96 1016.13 1016.03
1009.83 1009.66 1009.31 1009.16 1008.96 1009.17 1008.78 1008.67 1008.73 1007.96 1007.82 1008.34 1008.62 1009.22 1009.38 1010.29 1011.08 1010.91 1011.20 1011.18 1011.35 1011.63 1012.28 1012.67 1013.12 1013.21 1013.68 1014.11 1014.31 1014.53 1014.89 1015.24 1015.42 1015.42 1015.57 1015.74 1015.72 1015.65 1015.72 1015.69 1015.59 1015.55 1015.52 1015.61 1015.86 1016.09 1016.70 1016.69 1016.38
1009.92 1009.65 1009.42 1009.34 1009.19 1008.99 1009.07 1008.99 1008.53 1007.81 1008.29 1008.58 1008.59 1009.30 1010.99 1011.43 1011.83 1012.41 1012.27 1011.97 1011.65 1011.60 1012.08 1012.88 1013.03 1013.67 1014.11 1014.42 1014.24 1014.54 1014.68 1015.00 1015.42 1015.72 1015.68 1015.78 1015.81 1015.79 1015.66 1015.61 1015.75 1016.00 1015.89 1016.13 1016.41 1016.66 1016.82 1016.93 1016.46
1009.78 1009.72 1009.18 1009.38 1009.47 1009.32 1009.25 1008.72 1009.52 1009.43 1009.41 1008.95 1009.29 1010.04 1011.94 1012.67 1013.81 1013.76 1013.47 1012.57 1012.13 1012.76 1012.37 1013.05 1013.73 1014.00 1014.49 1014.50 1014.53 1014.73 1015.08 1015.06 1015.19 1015.54 1015.40 1015.28 1015.29 1015.42 1015.52 1015.79 1016.07 1016.30 1016.17 1016.23 1016.37 1016.79 1016.76 1016.81 1016.24
1009.90 1009.42 1009.41 1009.32 1009.56 1009.40 1009.58 1010.09 1011.21 1010.91 1009.99 1009.08 1009.95 1011.86 1013.49 1014.57 1014.59 1014.71 1014.26 1014.23 1013.93 1013.76 1013.70 1014.16 1014.65 1014.15 1014.49 1014.69 1014.41 1014.59 1014.65 1014.79 1015.03 1015.30 1015.09 1015.02 1015.05 1015.14 1015.43 1015.78 1016.21 1016.11 1016.04 1016.26 1016.47 1016.85 1016.95 1016.74 1016.44
1009.72 1009.65 1009.74 1009.58 1009.78 1009.98 1010.81 1012.30 1012.42 1012.03 1011.01 1011.35 1012.56 1014.17 1015.13 1015.16 1016.08 1016.18 1015.92 1015.61 1015.34 1015.42 1015.59 1015.46 1015.48 1015.50 1015.17 1014.94 1014.78 1014.74 1014.90 1015.39 1015.48 1015.32 1015.23 1015.27 1015.24 1015.33 1015.52 1015.74 1015.90 1015.70 1015.79 1015.98 1016.18 1016.43 1016.75 1016.72 1016.41
1010.20 1010.05 1009.94 1009.88 1010.27 1010.95 1012.42 1013.60 1014.28 1013.57 1014.12 1014.20 1014.66 1015.59 1016.23 1016.86 1017.31 1017.10 1017.42 1017.03 1016.44 1016.64 1016.75 1016.90 1016.60 1016.53 1016.34 1015.93 1015.32 1015.01 1015.37 1015.51 1015.59 1015.53 1015.55 1015.42 1015.35 1015.50 1015.48 1015.58 1015.71 1015.63 1015.52 1015.66 1015.96 1016.24 1016.29 1016.13 1016.14
1010.29 1010.09 1009.87 1010.01 1010.59 1011.25 1013.08 1014.40 1015.34 1015.60 1015.74 1016.18 1016.30 1016.89 1017.62 1018.03 1018.18 1018.55 1018.26 1018.06 1018.01 1017.70 1018.03 1018.09 1017.51 1017.48 1017.13 1016.75 1016.37 1016.21 1015.82 1015.90 1015.93 1015.71 1015.57 1015.49 1015.31 1015.49 1015.52 1015.70 1015.68 1015.61 1015.46 1015.52 1015.39 1015.45 1015.50 1015.33 1015.24
1010.36 1010.10 1010.01 1010.07 1010.69 1011.75 1012.59 1014.83 1016.77 1017.80 1017.99 1018.12 1018.27 1018.97 1019.24 1019.27 1019.56 1019.90 1019.49 1019.32 1019.60 1019.60 1019.35 1019.37 1018.96 1018.77 1018.44 1017.83 1017.06 1016.75 1016.53 1016.21 1016.00 1015.98 1016.01 1015.94 1015.64 1015.56 1015.55 1015.76 1015.56 1015.50 1015.37 1015.13 1015.32 1015.37 1015.41 1015.21 1015.51
1010.16 1010.30 1010.28 1010.46 1010.65 1011.40 1013.05 1015.05 1017.81 1018.99 1019.89 1019.80 1020.34 1020.64 1020.77 1020.56 1020.57 1020.61 1020.45 1020.24 1020.30 1020.32 1020.14 1019.94 1019.84 1019.90 1019.52 1018.98 1018.59 1018.40 1017.81 1017.23 1017.17 1016.90 1016.52 1016.18 1015.83 1015.44 1015.48 1015.43 1015.42 1015.26 1015.11 1015.23 1015.12 1015.23 1015.24 1015.31 1014.77
1010.64 1010.65 1010.81 1010.95 1011.20 1012.07 1013.32 1014.82 1018.30 1019.71 1020.96 1021.76 1022.17 1021.95 1021.87 1021.94 1021.62 1021.48 1021.31 1021.09 1021.02 1020.60 1020.51 1020.83 1020.79 1020.63 1020.39 1020.13 1019.90 1019.15 1018.72 1018.50 1017.97 1017.54 1017.25 1016.84 1016.58 1015.98 1015.56 1015.57 1015.54 1015.42 1015.16 1015.01 1015.09 1014.99 1014.92 1014.76 1014.72
1011.05 1011.08 1011.31 1011.71 1011.93 1012.56 1014.46 1015.58 1018.65 1020.50 1022.01 1022.88 1023.30 1023.31 1023.04 1022.85 1022.53 1022.37 1022.29 1022.01 1021.69 1021.47 1021.49 1021.24 1021.27 1021.08 1020.86 1020.73 1020.60 1020.40 1019.93 1019.41 1018.84 1018.37 1017.70 1017.29 1016.76 1016.19 1015.85 1015.72 1015.52 1015.21 1015.03 1014.90 1014.75 1014.88 1014.90 1014.75 1014.75
1011.23 1011.30 1011.33 1011.70 1012.28 1013.41 1015.37 1016.65 1019.54 1021.70 1022.81 1023.60 1023.98 1024.14 1024.12 1023.96 1023.43 1023.19 1022.97 1022.78 1022.78 1022.63 1022.43 1022.15 1022.04 1021.77 1021.68 1021.55 1021.34 1021.05 1020.67 1020.18 1019.69 1019.35 1018.66 1018.13 1017.03 1016.36 1015.96 1015.87 1015.52 1015.16 1014.86 1014.70 1014.62 1014.71 1014.71 1014.69 1014.69
1011.92 1012.06 1011.99 1012.25 1013.07 1014.17 1015.97 1017.80 1020.13 1022.26 1023.24 1023.93 1024.35 1024.68 1024.53 1024.39 1024.16 1023.98 1023.84 1023.61 1023.36 1023.23 1023.20 1023.21 1023.08 1022.71 1022.40 1022.09 1021.86 1021.49 1021.22 1020.64 1020.22 1019.85 1019.50 1018.71 1017.91 1017.17 1016.83 1016.17 1015.49 1014.96 1014.60 1014.55 1014.56 1014.61 1014.63 1014.74 1014.76
1012.52 1012.78 1013.56 1013.60 1014.77 1015.04 1016.78 1019.31 1021.11 1022.16 1022.93 1023.44 1023.82 1024.14 1024.27 1024.31 1024.21 1024.14 1024.14 1024.15 1024.13 1024.05 1023.82 1023.77 1023.43 1023.06 1022.75 1022.46 1022.18 1021.85 1021.56 1021.25 1020.78 1020.25 1019.50 1018.59 1018.17 1017.44 1016.84 1016.57 1015.79 1015.10 1014.65 1014.57 1014.72 1014.76 1014.77 1014.94 1014.79
1013.01 1013.85 1014.08 1014.10 1014.46 1015.08 1016.72 1018.04 1018.48 1021.02 1022.17 1022.98 1023.42 1023.71 1023.94 1024.13 1024.28 1024.40 1024.61 1024.54 1024.67 1024.53 1024.34 1024.26 1024.07 1023.64 1023.19 1022.88 1022.48 1022.09 1021.86 1021.37 1020.86 1020.19 1019.50 1018.90 1018.30 1017.65 1016.93 1016.31 1015.76 1015.24 1014.71 1014.59 1014.59 1014.56 1014.62 1014.87 1014.89
1013.98 1014.10 1014.84 1015.04 1015.47 1015.47 1016.48 1017.20 1018.98 1019.88 1021.58 1022.69 1023.37 1023.81 1024.07 1024.24 1024.34 1024.41 1024.58 1024.73 1024.74 1024.65 1024.40 1024.16 1023.96 1023.65 1023.31 1022.84 1022.44 1022.02 1021.45 1020.94 1020.41 1019.93 1019.46 1018.87 1018.23 1017.58 1016.91 1016.21 1015.67 1015.13 1014.70 1014.47 1014.41 1014.38 1014.41 1014.60 1014.81
1015.24 1015.36 1015.59 1015.50 1016.19 1016.75 1017.32 1018.68 1020.16 1021.15 1022.22 1023.04 1023.51 1023.98 1024.33 1024.69 1024.73 1024.78 1024.81 1024.72 1024.60 1024.44 1024.31 1024.04 1023.72 1023.18 1022.76 1022.42 1022.00 1021.49 1021.00 1020.48 1019.93 1019.51 1019.07 1018.39 1017.76 1017.17 1016.49 1015.90 1015.35 1014.84 1014.53 1014.31 1014.09 1013.98 1014.21 1014.49 1014.61
Wind_Speed
6 6 2 3 3 2 3 4 1 5 1 2 1 1 6 1 4 4 4 11 12 15 13 15 13 13 14 14 14 15 14 14 14 14 14 14 13 13 12 10 9 8 7 8 7 7 7 6 6
6 4 3 2 1 2 4 0 4 4 1 3 1 2 4 2 1 3 8 7 14 16 13 14 14 14 15 15 15 14 14 14 13 13 13 14 13 12 12 10 9 8 8 8 7 7 6 6 5
8 1 2 2 1 2 4 6 4 6 6 6 3 2 2 2 2 3 3 13 13 12 13 12 13 13 14 15 15 14 14 14 14 13 13 13 12 12 11 10 9 9 8 6 6 5 5 5 4
4 3 2 3 6 5 5 11 4 8 5 3 2 3 2 2 1 4 11 16 13 10 11 13 12 12 11 13 14 14 13 12 13 13 12 12 11 10 10 9 8 8 6 5 5 4 4 4 4
1 1 1 5 6 4 3 5 6 5 3 2 2 3 2 2 5 10 13 13 14 10 9 11 9 9 10 12 12 12 12 11 10 11 11 11 10 10 9 8 8 7 6 4 3 3 3 3 2
1 1 2 6 3 2 3 5 3 2 2 0 2 2 5 3 4 12 13 12 8 10 10 9 10 7 6 8 9 9 9 9 9 9 9 9 9 8 7 7 6 5 4 3 3 2 1 1 1
1 1 2 5 4 5 6 8 3 2 1 2 2 2 4 6 10 12 13 12 11 9 10 8 10 9 7 6 6 7 7 7 7 7 6 6 6 6 6 6 5 4 4 3 2 1 2 2 2
3 1 4 3 4 4 4 6 5 2 2 3 2 5 4 4 12 13 12 11 11 9 9 9 8 8 7 8 7 6 7 6 6 6 6 6 5 6 6 4 6 5 4 3 3 4 4 5 5
2 3 5 4 3 3 3 6 5 3 1 3 1 1 6 10 11 12 8 8 7 6 8 7 9 9 8 8 8 8 7 6 6 6 5 6 5 5 5 3 3 6 6 5 5 5 5 6 6
3 4 6 2 3 2 5 4 3 2 3 1 2 5 7 11 10 11 9 8 10 9 8 8 8 7 7 6 6 6 6 5 6 6 6 5 5 4 5 4 5 6 6 6 7 7 6 8 3
4 6 4 4 5 2 4 3 4 3 3 6 5 7 4 7 11 9 10 11 12 10 8 9 7 7 6 4 5 3 4 4 4 6 7 5 4 3 4 4 4 5 6 5 6 5 4 3 2
4 4 4 3 6 5 2 4 9 4 0 5 7 4 9 6 7 7 7 3 6 12 10 8 8 7 6 4 4 4 4 4 4 6 6 5 4 4 4 4 4 4 3 4 4 4 2 1 2
4 3 5 5 5 6 5 11 7 10 10 13 8 5 2 8 8 10 9 6 10 12 10 12 11 8 6 6 2 4 5 4 4 4 5 3 4 3 4 4 4 4 4 4 4 4 1 2 2
1 2 4 3 4 2 8 10 8 14 6 11 14 6 9 8 11 7 5 9 9 11 11 9 11 9 8 6 6 4 3 3 4 4 3 5 4 3 4 4 5 5 4 3 1 2 2 2 1
0 3 2 1 2 2 7 8 16 16 13 15 15 8 14 16 16 13 10 7 8 7 11 12 12 7 5 3 5 4 4 4 3 4 4 4 4 4 4 4 3 2 1 4 3 3 2 2 2
1 1 4 3 3 3 5 6 9 10 10 23 14 11 11 17 15 16 13 12 11 1 7 8 6 6 5 5 5 4 5 4 2 3 4 5 5 4 2 2 1 1 3 4 3 2 2 2 3
3 2 1 3 2 1 3 6 20 18 10 20 16 13 14 15 18 18 17 15 14 11 9 7 4 4 5 5 2 4 1 1 1 3 3 5 5 5 4 3 3 5 5 4 4 3 1 3 4
3 2 2 3 2 5 9 12 16 19 5 5 17 16 16 20 18 16 17 17 19 18 16 14 11 11 5 2 4 4 4 2 2 1 2 4 3 4 5 5 5 5 5 5 5 5 3 2 4
3 3 4 5 3 6 12 15 18 20 16 17 18 19 18 19 18 19 18 19 20 19 17 17 13 13 7 4 3 2 2 2 3 3 3 1 1 4 6 6 7 6 6 6 7 6 4 3 4
5 4 6 4 5 9 18 19 21 19 17 17 19 18 18 17 20 19 20 20 21 20 18 18 19 16 13 9 6 4 4 3 3 2 2 1 4 5 5 6 6 6 7 8 8 8 5 4 5
4 6 4 5 7 8 9 17 16 15 18 19 20 18 18 18 18 18 20 21 20 21 19 19 19 18 17 16 9 6 3 2 3 4 2 2 2 4 5 6 6 8 6 6 6 6 6 4 4
2 5 2 1 5 5 3 6 11 10 15 18 16 16 16 17 18 18 18 20 19 17 17 18 18 18 16 18 13 13 9 8 6 7 6 5 5 5 7 8 8 8 6 6 7 6 6 6 7
2 0 2 2 3 3 5 5 5 2 11 12 12 14 15 15 16 17 17 17 18 18 17 16 16 16 17 16 15 12 13 10 9 8 11 9 8 7 7 8 8 8 8 8 8 7 7 6 6
6 1 4 3 1 6 5 2 4 2 2 7 8 10 11 12 14 15 15 15 16 16 16 16 17 16 16 16 15 15 14 13 11 12 10 8 8 6 7 10 10 9 9 9 7 7 8 7 7
2 0 3 4 4 2 2 1 6 5 6 6 7 8 9 9 12 14 16 15 15 16 16 15 17 15 16 15 15 15 14 13 12 11 9 12 9 9 10 10 10 10 10 10 8 8 9 8 7
4 1 3 5 4 3 1 4 6 9 8 7 6 2 5 7 9 12 14 13 14 15 15 15 15 14 14 15 15 14 15 10 10 11 11 10 10 10 13 12 12 13 12 11 9 8 7 7 7
4 2 2 5 1 4 5 4 6 9 8 5 4 3 4 7 10 13 14 12 13 13 14 14 15 15 15 15 14 14 13 13 13 16 14 11 13 11 13 13 13 12 11 9 8 6 4 5 6
2 5 3 1 3 4 4 4 4 15 11 4 4 6 7 8 10 12 11 12 11 11 12 12 13 13 14 15 13 12 14 13 13 13 14 15 14 14 14 13 13 12 10 7 6 4 5 6 4
0 2 5 3 3 3 2 2 8 16 12 6 5 6 7 9 12 13 12 12 11 11 11 12 14 14 14 13 13 14 13 14 13 12 13 13 13 13 13 13 13 13 9 8 7 7 5 6 4
4 3 2 2 3 1 3 2 3 10 8 3 4 5 6 8 10 11 12 13 12 14 15 15 14 15 15 15 15 15 15 15 15 14 15 13 13 13 13 13 12 11 10 9 8 6 5 3 5
Wind_Direction
163 150 168 221 235 264 35 59 116 50 328 301 261 172 95 31 2 12 27 156 151 147 151 155 149 149 144 137 132 130 126 126 124 125 125 127 130 133 132 133 132 126 116 108 102 99 99 103 107
147 151 201 282 325 10 354 6 26 80 309 155 204 151 132 100 292 84 140 148 157 148 154 156 150 148 146 142 139 136 133 130 127 126 129 132 133 134 136 136 137 134 127 119 112 106 102 104 110
165 220 290 359 74 339 320 306 356 137 110 185 281 344 68 72 38 141 116 141 148 152 151 152 149 144 148 146 143 141 138 136 135 135 136 139 140 141 141 142 145 148 145 138 129 120 114 105 97
170 176 137 83 67 38 312 311 328 179 135 141 238 149 215 347 137 147 143 137 146 151 151 141 142 141 147 147 146 143 141 142 141 142 142 142 143 144 143 144 145 152 153 145 131 116 103 89 86
68 240 82 98 79 29 22 7 111 126 112 110 340 92 86 82 81 116 135 139 144 137 141 143 126 133 149 153 146 145 145 145 147 146 149 149 149 151 151 152 154 152 148 138 126 110 96 88 81
164 300 169 128 101 324 9 6 107 93 137 101 308 211 101 58 123 123 131 126 124 131 131 149 128 139 154 151 145 145 148 147 155 154 153 158 158 157 154 143 145 149 149 141 126 118 105 51 354
144 198 158 157 116 84 5 327 12 135 134 56 360 302 78 84 119 125 130 129 126 130 137 153 152 163 154 137 143 149 150 148 155 152 157 163 172 172 171 170 170 179 177 167 175 225 263 270 277
112 145 156 173 173 91 16 358 9 219 118 87 294 31 73 129 135 131 135 135 133 141 133 153 160 166 168 162 158 166 161 154 160 165 168 169 186 200 202 208 207 220 220 224 234 262 286 297 298
167 175 185 174 194 356 28 36 58 345 120 112 191 144 95 138 144 132 135 135 143 152 146 154 163 173 172 169 166 171 174 174 169 179 180 184 212 213 216 221 242 238 240 248 261 275 282 286 259
184 205 196 176 144 30 353 335 42 325 7 355 236 232 116 154 174 163 162 184 180 177 169 168 169 173 169 177 170 179 184 197 203 194 196 206 205 222 264 265 245 250 253 256 258 263 274 251 255
153 209 197 176 176 245 17 87 350 67 15 343 323 289 280 187 197 204 184 198 185 188 173 176 172 171 183 168 170 189 192 199 214 214 208 205 213 213 233 239 227 226 209 242 222 226 248 270 246
199 192 193 159 203 184 149 106 302 303 45 332 16 8 323 236 248 237 233 231 194 190 181 167 180 171 180 170 184 188 212 192 217 226 211 205 210 216 241 244 240 233 235 268 258 247 246 206 111
220 183 213 257 235 257 170 188 184 224 299 307 295 333 316 254 237 238 241 226 196 205 183 182 182 171 177 173 180 227 229 215 246 232 236 232 236 244 252 250 255 257 247 237 251 279 305 93 95
309 254 248 260 279 226 199 211 190 234 269 280 284 344 344 19 340 307 289 274 212 195 191 185 200 177 177 187 193 227 256 268 274 268 266 264 268 261 262 269 271 265 261 250 306 42 29 42 42
77 266 243 203 272 242 168 176 209 205 196 219 245 235 45 22 17 14 6 355 262 211 184 190 191 186 186 196 228 255 246 237 262 293 297 277 272 271 279 296 311 339 303 86 89 93 46 331 307
100 125 229 123 279 41 210 249 353 316 211 213 205 224 82 65 32 18 13 30 39 291 191 169 190 166 188 199 221 227 239 226 250 263 257 257 251 241 243 233 68 123 132 129 125 150 141 285 308
44 128 120 136 62 35 224 6 5 353 260 194 196 71 64 60 47 31 32 37 44 53 68 79 107 139 187 219 221 227 259 286 263 257 246 248 237 209 194 152 150 144 137 136 130 96 341 324 324
170 165 171 273 167 357 83 41 15 22 19 47 83 79 76 66 49 46 45 45 48 44 45 43 44 18 27 47 83 76 91 62 19 337 268 254 239 173 163 154 153 149 136 133 123 124 104 20 342
178 199 251 264 346 83 74 54 28 49 68 78 75 74 67 68 63 52 43 46 49 41 40 35 28 27 21 358 0 38 48 30 56 42 20 10 216 172 169 169 166 161 142 133 150 144 136 85 12
191 206 237 270 104 102 77 52 42 50 69 71 78 71 71 64 54 43 46 42 39 42 33 30 30 27 22 17 13 2 13 34 19 29 76 44 175 176 169 178 175 169 152 156 161 176 172 184 161
211 236 222 261 127 99 135 59 49 53 60 69 66 65 62 59 56 48 45 45 43 40 39 36 34 31 28 16 16 1 0 22 4 9 1 337 254 207 193 194 197 184 197 180 180 182 191 196 187
178 204 215 209 203 181 316 133 57 62 54 54 58 64 61 58 58 49 41 38 32 30 32 31 28 25 23 23 25 25 15 0 359 326 321 287 259 226 219 209 206 205 213 213 196 204 241 241 254
79 26 66 77 99 205 45 113 87 66 55 47 47 64 65 59 54 45 34 29 28 25 23 22 20 23 19 19 19 14 14 359 346 346 331 325 307 286 254 242 242 237 228 222 228 213 223 228 265
141 88 61 68 127 235 17 247 118 43 78 73 64 56 52 49 41 37 30 25 21 19 16 12 9 9 9 9 8 7 2 352 347 349 339 333 316 303 283 277 264 255 243 234 241 241 234 232 242
150 150 276 238 219 320 332 104 70 106 85 109 76 52 50 41 33 23 19 15 12 11 8 4 4 359 358 356 355 353 346 338 330 330 328 325 323 322 317 308 278 267 262 265 255 236 238 231 237
40 273 265 280 255 144 112 153 124 127 122 111 92 89 43 28 27 23 14 8 3 4 2 356 352 348 351 348 343 343 337 329 321 325 320 309 311 314 320 313 301 286 271 265 261 256 256 258 254
135 203 46 114 106 223 113 116 161 162 152 136 101 79 42 23 20 11 6 4 359 354 357 351 348 346 346 343 337 330 332 326 320 316 313 310 308 309 306 310 313 307 293 275 271 268 282 282 272
352 117 205 166 209 240 177 208 195 184 175 138 64 25 12 4 4 2 359 358 353 351 349 349 346 340 338 333 326 323 317 315 313 313 313 310 306 307 306 304 305 312 309 284 269 259 266 276 294
245 152 65 83 329 273 245 183 341 180 166 131 58 17 359 354 353 352 351 352 349 351 350 349 342 337 332 326 328 322 320 318 316 314 313 306 305 307 307 307 307 301 298 289 269 264 260 261 251
48 56 30 253 183 51 319 104 51 135 139 117 34 7 359 351 349 346 346 348 352 353 348 342 337 335 334 332 328 325 326 328 325 321 317 313 310 311 302 301 296 289 287 302 290 289 259 211 249